Location: Aulnoy
(48.8410°N, 3.0967°E)
Time: 23:56:22
(UTC+00:00)

Cosmos 1709 Rocket - Pass Details

Date: 09 February 2023
Orbit: 948 x 1001 km, 82.9° (Epoch: 01 April)

Event Time Altitude Azimuth Distance (km) Brightness Sun altitude
Rises 18:32:00 0° 351° (N) 3,648 7.1 -15.9°
Reaches altitude 10° 18:34:32 10° 353° (N) 2,693 6.4 -16.3°
Maximum altitude 18:40:41 78° 80° (E) 976 3.8 -17.3°
Drops below altitude 10° 18:46:47 10° 167° (SSE) 2,665 6.2 -18.3°
Sets 18:49:15 0° 169° (SSE) 3,607 6.9 -18.7°
